,,Stat6,,Stat2,,Stat8,,Stat9,,Stat10,,Wind1,,Wind1,
time,status,PA1M_AVG,status,PR1M_SUM,status,RH1M_AVG,status,SR1M_AVG,status,TA1M_AVG,status,W1dAve1m,status,W1sAve1m,
2003-10-06, 00:00:00,VALID,918.519,VALID,0,VALID,100,VALID,-0.0339617,VALID,19.3181,VALID,32,VALID,0.861555,
2003-10-06, 00:01:00,VALID,918.528,VALID,0,VALID,100,VALID,0,VALID,19.3184,VALID,21,VALID,0.525534,
2003-10-06, 00:02:00,VALID,918.521,VALID,0,VALID,100,VALID,-0.0169808,VALID,19.3055,VALID,18,VALID,0.637305,
2003-10-06, 00:03:00,VALID,918.516,VALID,0,VALID,100,VALID,0,VALID,19.302,VALID,18,VALID,0.518864,
2003-10-06, 00:04:00,VALID,918.51,VALID,0,VALID,100,VALID,0,VALID,19.3149,VALID,17,VALID,0.398838,
2003-10-06, 00:05:00,VALID,918.503,VALID,0,VALID,100,VALID,0,VALID,19.3278,VALID,3,VALID,0.658918,
2003-10-06, 00:06:00,VALID,918.494,VALID,0,VALID,100,VALID,-0.0169808,VALID,19.3018,VALID,357,VALID,0.788857,
2003-10-06, 00:07:00,VALID,918.486,VALID,0,VALID,100,VALID,0,VALID,19.2891,VALID,357,VALID,0.906977,
2003-10-06, 00:08:00,VALID,918.477,VALID,0,VALID,100,VALID,0,VALID,19.2831,VALID,5,VALID,0.789244,
2003-10-06, 00:09:00,VALID,918.463,VALID,0,VALID,100,VALID,0,VALID,19.2759,VALID,18,VALID,0.789825,
2003-10-06, 00:10:00,VALID,918.443,VALID,0,VALID,100,VALID,0,VALID,19.2891,VALID,19,VALID,0.646439,
2003-10-06, 00:11:00,VALID,918.42,VALID,0,VALID,100,VALID,0,VALID,19.3022,VALID,357,VALID,0.720703,
2003-10-06, 00:12:00,VALID,918.417,VALID,0.2,VALID,100,VALID,-0.0339617,VALID,19.3085,VALID,6,VALID,0.579215,
2003-10-06, 00:13:00,VALID,918.406,VALID,0,VALID,100,VALID,0,VALID,19.3249,VALID,5,VALID,0.389915,
2003-10-06, 00:14:00,VALID,918.378,VALID,0,VALID,100,VALID,0,VALID,19.3214,VALID,353,VALID,0.719295,
2003-10-06, 00:15:00,VALID,918.367,VALID,0,VALID,100,VALID,0,VALID,19.3219,VALID,356,VALID,0.732887,
2003-10-06, 00:16:00,VALID,918.356,VALID,0,VALID,100,VALID,-0.0169808,VALID,19.3383,VALID,1,VALID,0.662388,
2003-10-06, 00:17:00,VALID,918.349,VALID,0,VALID,100,VALID,-0.0339617,VALID,19.3343,VALID,3,VALID,0.714258,
2003-10-06, 00:18:00,VALID,918.338,VALID,0,VALID,100,VALID,-0.0339617,VALID,19.3383,VALID,344,VALID,1.13743,
2003-10-06, 00:19:00,VALID,918.349,VALID,0.2,VALID,100,VALID,-0.0169808,VALID,19.302,VALID,9,VALID,1.47638,
2003-10-06, 00:20:00,VALID,918.346,VALID,0,VALID,100,VALID,0,VALID,19.3027,VALID,341,VALID,1.4435,
2003-10-06, 00:21:00,VALID,918.328,VALID,0,VALID,100,VALID,0,VALID,19.2598,VALID,4,VALID,1.39787,
2003-10-06, 00:22:00,VALID,918.32,VALID,0,VALID,100,VALID,-0.0169808,VALID,19.2829,VALID,17,VALID,1.25724,
2003-10-06, 00:23:00,VALID,918.319,VALID,0.2,VALID,100,VALID,0,VALID,19.2891,VALID,359,VALID,1.25495,
2003-10-06, 00:24:00,VALID,918.309,VALID,0,VALID,100,VALID,0,VALID,19.2471,VALID,11,VALID,1.17951,
2003-10-06, 00:25:00,VALID,918.3,VALID,0,VALID,100,VALID,-0.0169808,VALID,19.2349,VALID,349,VALID,0.892045,
2003-10-06, 00:26:00,VALID,918.305,VALID,0,VALID,100,VALID,0,VALID,19.2054,VALID,349,VALID,0.951758,
2003-10-06, 00:27:00,VALID,918.302,VALID,0.2,VALID,100,VALID,0,VALID,19.1798,VALID,357,VALID,1.23344,
2003-10-06, 00:28:00,VALID,918.289,VALID,0,VALID,100,VALID,0,VALID,19.1664,VALID,17,VALID,0.876334,
2003-10-06, 00:29:00,VALID,918.286,VALID,0,VALID,100,VALID,0,VALID,19.1664,VALID,1,VALID,0.77763,
2003-10-06, 00:30:00,VALID,918.289,VALID,0,VALID,100,VALID,0,VALID,19.1567,VALID,9,VALID,1.18331,
2003-10-06, 00:31:00,VALID,918.298,VALID,0.2,VALID,100,VALID,0.0169808,VALID,19.1629,VALID,358,VALID,1.03563,
2003-10-06, 00:32:00,VALID,918.296,VALID,0,VALID,100,VALID,0,VALID,19.1341,VALID,8,VALID,1.1994,
2003-10-06, 00:33:00,VALID,918.296,VALID,0,VALID,100,VALID,0.0339617,VALID,19.1048,VALID,2,VALID,1.00428,
2003-10-06, 00:34:00,VALID,918.288,VALID,0.2,VALID,100,VALID,0.0339617,VALID,19.1048,VALID,13,VALID,0.956174,
2003-10-06, 00:35:00,VALID,918.292,VALID,0,VALID,100,VALID,0,VALID,19.1082,VALID,2,VALID,1.59284,
2003-10-06, 00:36:00,VALID,918.28,VALID,0,VALID,100,VALID,-0.0169808,VALID,19.0983,VALID,339,VALID,1.01696,
2003-10-06, 00:37:00,VALID,918.268,VALID,0,VALID,100,VALID,0,VALID,19.1115,VALID,355,VALID,0.700581,
2003-10-06, 00:38:00,VALID,918.269,VALID,0.2,VALID,100,VALID,0,VALID,19.1214,VALID,12,VALID,1.07637,
2003-10-06, 00:39:00,VALID,918.254,VALID,0,VALID,100,VALID,0,VALID,19.1016,VALID,19,VALID,0.732469,
2003-10-06, 00:40:00,VALID,918.245,VALID,0,VALID,100,VALID,0.0169808,VALID,19.1048,VALID,13,VALID,0.890997,
2003-10-06, 00:41:00,VALID,918.234,VALID,0.2,VALID,100,VALID,0,VALID,19.1124,VALID,10,VALID,0.710405,
2003-10-06, 00:42:00,VALID,918.224,VALID,0,VALID,100,VALID,-0.0339617,VALID,19.0921,VALID,14,VALID,0.934593,
2003-10-06, 00:43:00,VALID,918.194,VALID,0,VALID,100,VALID,-0.0169808,VALID,19.0956,VALID,17,VALID,0.708274,
2003-10-06, 00:44:00,VALID,918.173,VALID,0.2,VALID,100,VALID,-0.0169808,VALID,19.0963,VALID,16,VALID,1.23326,
2003-10-06, 00:45:00,VALID,918.155,VALID,0,VALID,100,VALID,0,VALID,19.0797,VALID,10,VALID,0.805432,
2003-10-06, 00:46:00,VALID,918.128,VALID,0.2,VALID,100,VALID,0,VALID,19.0896,VALID,37,VALID,0.824609,
2003-10-06, 00:47:00,VALID,918.11,VALID,0,VALID,100,VALID,0,VALID,19.0797,VALID,16,VALID,0.503806,
2003-10-06, 00:48:00,VALID,918.095,VALID,0,VALID,100,VALID,-0.0169808,VALID,19.0801,VALID,22,VALID,0.560826,
2003-10-06, 00:49:00,VALID,918.074,VALID,0.2,VALID,100,VALID,-0.0169808,VALID,19.0474,VALID,39,VALID,0.439499,
2003-10-06, 00:50:00,VALID,918.052,VALID,0,VALID,100,VALID,-0.0169808,VALID,19.0541,VALID,23,VALID,0.220238,
2003-10-06, 00:51:00,VALID,918.034,VALID,0.2,VALID,100,VALID,0,VALID,19.0474,VALID,13,VALID,0.37314,
2003-10-06, 00:52:00,VALID,918.008,VALID,0,VALID,100,VALID,0,VALID,19.0374,VALID,16,VALID,0.539253,
2003-10-06, 00:53:00,VALID,917.987,VALID,0,VALID,100,VALID,0,VALID,19.0409,VALID,26,VALID,0.587674,
2003-10-06, 00:54:00,VALID,917.96,VALID,0.2,VALID,100,VALID,-0.0169808,VALID,19.0508,VALID,25,VALID,0.452744,
2003-10-06, 00:55:00,VALID,917.941,VALID,0,VALID,100,VALID,0,VALID,19.0374,VALID,25,VALID,0.43314,
2003-10-06, 00:56:00,VALID,917.923,VALID,0,VALID,100,VALID,-0.0169808,VALID,19.0407,VALID,25,VALID,0.30506,
2003-10-06, 00:57:00,VALID,917.889,VALID,0,VALID,100,VALID,0,VALID,19.064,VALID,25,VALID,0.283482,
2003-10-06, 00:58:00,VALID,917.864,VALID,0.2,VALID,100,VALID,0,VALID,19.0707,VALID,25,VALID,0.391715,
2003-10-06, 00:59:00,VALID,917.851,VALID,0,VALID,100,VALID,-0.0339617,VALID,19.0668,VALID,25,VALID,0.355945,
2003-10-06, 01:00:00,VALID,917.836,VALID,0,VALID,100,VALID,0,VALID,19.0923,VALID,25,VALID,0.322976,
2003-10-06, 01:01:00,VALID,917.821,VALID,0,VALID,100,VALID,-0.0169808,VALID,19.0829,VALID,25,VALID,0.396839,
2003-10-06, 01:02:00,VALID,917.816,VALID,0.2,VALID,100,VALID,0,VALID,19.0732,VALID,25,VALID,0.374199,
2003-10-06, 01:03:00,VALID,917.804,VALID,0,VALID,100,VALID,0.0169808,VALID,19.0732,VALID,25,VALID,0.406783,
2003-10-06, 01:04:00,VALID,917.787,VALID,0,VALID,100,VALID,-0.0169808,VALID,19.0705,VALID,25,VALID,0.445313,
2003-10-06, 01:05:00,VALID,917.779,VALID,0,VALID,100,VALID,-0.0169808,VALID,19.064,VALID,25,VALID,0.497196,
2003-10-06, 01:06:00,VALID,917.771,VALID,0,VALID,100,VALID,-0.0169808,VALID,19.0541,VALID,20,VALID,0.521007,
2003-10-06, 01:07:00,VALID,917.76,VALID,0,VALID,100,VALID,0,VALID,19.0541,VALID,19,VALID,0.680556,
2003-10-06, 01:08:00,VALID,917.764,VALID,0.2,VALID,100,VALID,0,VALID,19.0543,VALID,15,VALID,0.68192,
2003-10-06, 01:09:00,VALID,917.768,VALID,0,VALID,100,VALID,-0.0169808,VALID,19.0578,VALID,15,VALID,0.719122,
2003-10-06, 01:10:00,VALID,917.774,VALID,0,VALID,100,VALID,0,VALID,19.0345,VALID,7,VALID,0.53016,
2003-10-06, 01:11:00,VALID,917.772,VALID,0,VALID,100,VALID,0,VALID,19.0476,VALID,5,VALID,0.480097,
2003-10-06, 01:12:00,VALID,917.78,VALID,0.2,VALID,100,VALID,-0.0339617,VALID,19.0538,VALID,11,VALID,0.596058,
2003-10-06, 01:13:00,VALID,917.765,VALID,0,VALID,100,VALID,0,VALID,19.0347,VALID,11,VALID,0.480183,
2003-10-06, 01:14:00,VALID,917.764,VALID,0,VALID,100,VALID,0,VALID,19.0382,VALID,8,VALID,0.764027,
2003-10-06, 01:15:00,VALID,917.763,VALID,0,VALID,100,VALID,-0.0169808,VALID,19.0384,VALID,4,VALID,0.575174,
2003-10-06, 01:16:00,VALID,917.776,VALID,0.2,VALID,100,VALID,0,VALID,19.019,VALID,340,VALID,0.684956,
2003-10-06, 01:17:00,VALID,917.774,VALID,0,VALID,100,VALID,-0.0339617,VALID,18.9962,VALID,334,VALID,0.614169,
2003-10-06, 01:18:00,VALID,917.773,VALID,0,VALID,100,VALID,-0.0339617,VALID,18.9867,VALID,320,VALID,0.260417,
2003-10-06, 01:19:00,VALID,917.766,VALID,0,VALID,100,VALID,-0.0679233,VALID,18.98,VALID,330,VALID,0.617188,
2003-10-06, 01:20:00,VALID,917.769,VALID,0.2,VALID,100,VALID,-0.0679233,VALID,18.98,VALID,358,VALID,0.495313,
2003-10-06, 01:21:00,VALID,917.759,VALID,0,VALID,100,VALID,0,VALID,18.9932,VALID,355,VALID,0.265625,
2003-10-06, 01:22:00,VALID,917.752,VALID,0,VALID,100,VALID,0,VALID,19.0059,VALID,346,VALID,0.126488,
2003-10-06, 01:23:00,VALID,917.751,VALID,0,VALID,100,VALID,-0.0339617,VALID,19.0156,VALID,346,VALID,0.251243,
2003-10-06, 01:24:00,VALID,917.762,VALID,0.2,VALID,100,VALID,-0.0169808,VALID,19.0384,VALID,359,VALID,0.403232,
2003-10-06, 01:25:00,VALID,917.765,VALID,0,VALID,100,VALID,-0.0169808,VALID,19.0709,VALID,17,VALID,0.604403,
2003-10-06, 01:26:00,VALID,917.779,VALID,0,VALID,100,VALID,-0.0339617,VALID,19.0804,VALID,18,VALID,0.764482,
2003-10-06, 01:27:00,VALID,917.772,VALID,0,VALID,100,VALID,-0.0339617,VALID,19.0903,VALID,350,VALID,0.613636,
2003-10-06, 01:28:00,VALID,917.764,VALID,0,VALID,100,VALID,0,VALID,19.0772,VALID,14,VALID,0.835938,
2003-10-06, 01:29:00,VALID,917.75,VALID,0.2,VALID,100,VALID,-0.0339617,VALID,19.0866,VALID,23,VALID,0.755632,
2003-10-06, 01:30:00,VALID,917.722,VALID,0,VALID,100,VALID,-0.0169808,VALID,19.0804,VALID,15,VALID,0.564174,
2003-10-06, 01:31:00,VALID,917.696,VALID,0,VALID,100,VALID,0,VALID,19.0642,VALID,29,VALID,0.427871,
2003-10-06, 01:32:00,VALID,917.683,VALID,0,VALID,100,VALID,-0.0169808,VALID,19.0578,VALID,21,VALID,0.584635,
2003-10-06, 01:33:00,VALID,917.664,VALID,0,VALID,100,VALID,-0.0509425,VALID,19.0126,VALID,9,VALID,0.981585,
2003-10-06, 01:34:00,VALID,917.645,VALID,0.2,VALID,100,VALID,-0.0169808,VALID,18.9969,VALID,19,VALID,0.690451,
2003-10-06, 01:35:00,VALID,917.624,VALID,0,VALID,100,VALID,-0.0169808,VALID,18.9641,VALID,7,VALID,0.811166,
2003-10-06, 01:36:00,VALID,917.603,VALID,0,VALID,100,VALID,-0.0339617,VALID,18.9254,VALID,358,VALID,0.755022,
2003-10-06, 01:37:00,VALID,917.58,VALID,0,VALID,100,VALID,-0.0679233,VALID,18.9,VALID,342,VALID,0.41061,
2003-10-06, 01:38:00,VALID,917.56,VALID,0,VALID,100,VALID,-0.0339617,VALID,18.8797,VALID,336,VALID,0.501334,
2003-10-06, 01:39:00,VALID,917.544,VALID,0,VALID,100,VALID,-0.0339617,VALID,18.8606,VALID,329,VALID,0.317645,
2003-10-06, 01:40:00,VALID,917.547,VALID,0.2,VALID,100,VALID,-0.0169808,VALID,18.8313,VALID,319,VALID,0.715732,
2003-10-06, 01:41:00,VALID,917.534,VALID,0,VALID,100,VALID,-0.0339617,VALID,18.8156,VALID,316,VALID,0.268787,
2003-10-06, 01:42:00,VALID,917.529,VALID,0,VALID,100,VALID,-0.0509425,VALID,18.8156,VALID,317,VALID,0,
2003-10-06, 01:43:00,VALID,917.524,VALID,0,VALID,100,VALID,-0.0169808,VALID,18.8156,VALID,317,VALID,0.00611413,
2003-10-06, 01:44:00,VALID,917.534,VALID,0,VALID,100,VALID,-0.0169808,VALID,18.8481,VALID,340,VALID,0.313616,
2003-10-06, 01:45:00,VALID,917.529,VALID,0.2,VALID,100,VALID,-0.0339617,VALID,18.8804,VALID,359,VALID,0.44549,
2003-10-06, 01:46:00,VALID,917.514,VALID,0,VALID,100,VALID,-0.0339617,VALID,18.8933,VALID,17,VALID,0.560547,
2003-10-06, 01:47:00,VALID,917.496,VALID,0,VALID,100,VALID,-0.0509425,VALID,18.8742,VALID,38,VALID,0.515803,
2003-10-06, 01:48:00,VALID,917.481,VALID,0,VALID,100,VALID,0,VALID,18.871,VALID,41,VALID,0.412847,
2003-10-06, 01:49:00,VALID,917.455,VALID,0.2,VALID,100,VALID,-0.0339617,VALID,18.8382,VALID,56,VALID,0.556868,
2003-10-06, 01:50:00,VALID,917.451,VALID,0,VALID,100,VALID,-0.0509425,VALID,18.8255,VALID,67,VALID,0.712391,
2003-10-06, 01:51:00,VALID,917.434,VALID,0,VALID,100,VALID,0,VALID,18.7965,VALID,76,VALID,0.602805,
2003-10-06, 01:52:00,VALID,917.424,VALID,0,VALID,100,VALID,-0.0509425,VALID,18.7838,VALID,73,VALID,0.570112,
2003-10-06, 01:53:00,VALID,917.422,VALID,0.2,VALID,100,VALID,-0.0339617,VALID,18.7448,VALID,85,VALID,0.643415,
2003-10-06, 01:54:00,VALID,917.414,VALID,0,VALID,100,VALID,-0.0339617,VALID,18.7284,VALID,82,VALID,0.554102,
2003-10-06, 01:55:00,VALID,917.403,VALID,0.2,VALID,100,VALID,0,VALID,18.7187,VALID,95,VALID,0.33631,
2003-10-06, 01:56:00,VALID,917.387,VALID,0,VALID,100,VALID,-0.0169808,VALID,18.719,VALID,127,VALID,0.643895,
2003-10-06, 01:57:00,VALID,917.372,VALID,0.2,VALID,100,VALID,-0.0169808,VALID,18.7416,VALID,145,VALID,0.856399,
2003-10-06, 01:58:00,VALID,917.365,VALID,0,VALID,100,VALID,-0.0509425,VALID,18.7413,VALID,144,VALID,0.663876,
2003-10-06, 01:59:00,VALID,917.33,VALID,0.2,VALID,100,VALID,-0.0509425,VALID,18.7575,VALID,133,VALID,0.491832,
2003-10-06, 02:00:00,VALID,917.329,VALID,0,VALID,100,VALID,-0.0509425,VALID,18.7545,VALID,142,VALID,0.612179,
2003-10-06, 02:01:00,VALID,917.318,VALID,0.2,VALID,100,VALID,0,VALID,18.7609,VALID,141,VALID,0.862995,
2003-10-06, 02:02:00,VALID,917.303,VALID,0,VALID,100,VALID,0,VALID,18.7413,VALID,132,VALID,0.533612,
2003-10-06, 02:03:00,VALID,917.309,VALID,0,VALID,100,VALID,-0.0509425,VALID,18.748,VALID,126,VALID,0.880766,
2003-10-06, 02:04:00,VALID,917.313,VALID,0.2,VALID,100,VALID,-0.0169808,VALID,18.7446,VALID,115,VALID,0.714658,
2003-10-06, 02:05:00,VALID,917.297,VALID,0,VALID,100,VALID,0,VALID,18.7411,VALID,129,VALID,0.786204,
2003-10-06, 02:06:00,VALID,917.293,VALID,0,VALID,100,VALID,0,VALID,18.7741,VALID,124,VALID,0.480859,
2003-10-06, 02:07:00,VALID,917.28,VALID,0.2,VALID,100,VALID,-0.0169808,VALID,18.7674,VALID,115,VALID,0.762718,
2003-10-06, 02:08:00,VALID,917.261,VALID,0,VALID,100,VALID,0,VALID,18.7478,VALID,120,VALID,0.706845,
2003-10-06, 02:09:00,VALID,917.243,VALID,0,VALID,100,VALID,0,VALID,18.7575,VALID,133,VALID,0.855097,
2003-10-06, 02:10:00,VALID,917.234,VALID,0.2,VALID,100,VALID,0,VALID,18.7672,VALID,131,VALID,0.692264,
2003-10-06, 02:11:00,VALID,917.225,VALID,0,VALID,100,VALID,0,VALID,18.7801,VALID,127,VALID,0.583333,
2003-10-06, 02:12:00,VALID,917.212,VALID,0,VALID,100,VALID,-0.0169808,VALID,18.7868,VALID,120,VALID,0.679102,
2003-10-06, 02:13:00,VALID,917.22,VALID,0,VALID,100,VALID,0,VALID,18.7962,VALID,121,VALID,0.474201,
2003-10-06, 02:14:00,VALID,917.196,VALID,0.2,VALID,100,VALID,0.0169808,VALID,18.8027,VALID,100,VALID,0.74782,
2003-10-06, 02:15:00,VALID,917.153,VALID,0,VALID,100,VALID,-0.0169808,VALID,18.7992,VALID,113,VALID,0.668899,
2003-10-06, 02:16:00,VALID,917.116,VALID,0,VALID,100,VALID,-0.0169808,VALID,18.8024,VALID,121,VALID,1.03144,
2003-10-06, 02:17:00,VALID,917.076,VALID,0.2,VALID,100,VALID,0.0169808,VALID,18.8255,VALID,136,VALID,1.04148,
2003-10-06, 02:18:00,VALID,917.057,VALID,0,VALID,100,VALID,-0.0169808,VALID,18.8253,VALID,127,VALID,0.718932,
2003-10-06, 02:19:00,VALID,917.039,VALID,0,VALID,100,VALID,0,VALID,18.8124,VALID,128,VALID,0.913876,
2003-10-06, 02:20:00,VALID,917.031,VALID,0.2,VALID,100,VALID,-0.0169808,VALID,18.8126,VALID,133,VALID,0.913021,
2003-10-06, 02:21:00,VALID,917.005,VALID,0,VALID,100,VALID,0,VALID,18.793,VALID,127,VALID,0.815739,
2003-10-06, 02:22:00,VALID,916.976,VALID,0,VALID,100,VALID,-0.0169808,VALID,18.7898,VALID,136,VALID,1.09766,
2003-10-06, 02:23:00,VALID,916.956,VALID,0,VALID,100,VALID,-0.0169808,VALID,18.754,VALID,133,VALID,1.2904,
2003-10-06, 02:24:00,VALID,916.939,VALID,0.2,VALID,100,VALID,0,VALID,18.7376,VALID,137,VALID,1.19382,
2003-10-06, 02:25:00,VALID,916.906,VALID,0,VALID,100,VALID,-0.0339617,VALID,18.7381,VALID,132,VALID,1.07069,
2003-10-06, 02:26:00,VALID,916.901,VALID,0,VALID,100,VALID,-0.0169808,VALID,18.7448,VALID,133,VALID,1.44073,
2003-10-06, 02:27:00,VALID,916.895,VALID,0.2,VALID,100,VALID,0,VALID,18.7346,VALID,138,VALID,1.1468,
2003-10-06, 02:28:00,VALID,916.893,VALID,0,VALID,100,VALID,-0.0339617,VALID,18.7247,VALID,134,VALID,1.65034,
2003-10-06, 02:29:00,VALID,916.898,VALID,0,VALID,100,VALID,0,VALID,18.7187,VALID,132,VALID,1.26696,
2003-10-06, 02:30:00,VALID,916.879,VALID,0.2,VALID,100,VALID,-0.0169808,VALID,18.715,VALID,127,VALID,0.937674,
2003-10-06, 02:31:00,VALID,916.86,VALID,0,VALID,100,VALID,0,VALID,18.715,VALID,129,VALID,1.41719,
2003-10-06, 02:32:00,VALID,916.852,VALID,0,VALID,100,VALID,0,VALID,18.7342,VALID,122,VALID,1.27398,
2003-10-06, 02:33:00,VALID,916.814,VALID,0,VALID,100,VALID,0,VALID,18.7575,VALID,124,VALID,1.52907,
2003-10-06, 02:34:00,VALID,916.77,VALID,0.2,VALID,100,VALID,-0.0169808,VALID,18.7831,VALID,127,VALID,1.46128,
2003-10-06, 02:35:00,VALID,916.741,VALID,0,VALID,100,VALID,0,VALID,18.8121,VALID,126,VALID,1.96689,
2003-10-06, 02:36:00,VALID,916.712,VALID,0,VALID,100,VALID,-0.0169808,VALID,18.838,VALID,123,VALID,1.76261,
2003-10-06, 02:37:00,VALID,916.691,VALID,0,VALID,100,VALID,0,VALID,18.8573,VALID,123,VALID,1.71475,
2003-10-06, 02:38:00,VALID,916.685,VALID,0.2,VALID,100,VALID,-0.0169808,VALID,18.8633,VALID,128,VALID,1.68999,
2003-10-06, 02:39:00,VALID,916.669,VALID,0,VALID,100,VALID,-0.0169808,VALID,18.8732,VALID,120,VALID,1.45941,
2003-10-06, 02:40:00,VALID,916.665,VALID,0,VALID,100,VALID,-0.0169808,VALID,18.8698,VALID,121,VALID,1.83485,
2003-10-06, 02:41:00,VALID,916.637,VALID,0,VALID,100,VALID,0,VALID,18.9095,VALID,117,VALID,1.62715,
2003-10-06, 02:42:00,VALID,916.624,VALID,0.2,VALID,100,VALID,0.0169808,VALID,18.906,VALID,123,VALID,1.48323,
2003-10-06, 02:43:00,VALID,916.619,VALID,0,VALID,100,VALID,0.0169808,VALID,18.9125,VALID,116,VALID,1.627,
2003-10-06, 02:44:00,VALID,916.609,VALID,0,VALID,100,VALID,0,VALID,18.9058,VALID,136,VALID,1.52714,
2003-10-06, 02:45:00,VALID,916.604,VALID,0,VALID,100,VALID,-0.0509425,VALID,18.9025,VALID,134,VALID,1.26641,
2003-10-06, 02:46:00,VALID,916.586,VALID,0.2,VALID,100,VALID,-0.0169808,VALID,18.9129,VALID,157,VALID,0.768945,
2003-10-06, 02:47:00,VALID,916.577,VALID,0,VALID,100,VALID,-0.0169808,VALID,18.906,VALID,155,VALID,0.562309,
2003-10-06, 02:48:00,VALID,916.568,VALID,0,VALID,100,VALID,-0.0169808,VALID,18.9058,VALID,149,VALID,0.71548,
2003-10-06, 02:49:00,VALID,916.55,VALID,0,VALID,100,VALID,0,VALID,18.9092,VALID,163,VALID,0.444965,
2003-10-06, 02:50:00,VALID,916.532,VALID,0.2,VALID,100,VALID,-0.0339617,VALID,18.909,VALID,169,VALID,0.310683,
2003-10-06, 02:51:00,VALID,916.486,VALID,0,VALID,100,VALID,0,VALID,18.9125,VALID,135,VALID,0.77397,
2003-10-06, 02:52:00,VALID,916.453,VALID,0,VALID,100,VALID,0,VALID,18.9122,VALID,128,VALID,1.15803,
2003-10-06, 02:53:00,VALID,916.402,VALID,0,VALID,100,VALID,-0.0169808,VALID,18.906,VALID,129,VALID,1.44077,
2003-10-06, 02:54:00,VALID,916.35,VALID,0,VALID,100,VALID,-0.0509425,VALID,18.906,VALID,126,VALID,1.57286,
2003-10-06, 02:55:00,VALID,916.316,VALID,0.2,VALID,100,VALID,-0.0169808,VALID,18.8956,VALID,127,VALID,1.42759,
2003-10-06, 02:56:00,VALID,916.251,VALID,0,VALID,100,VALID,-0.0169808,VALID,18.906,VALID,129,VALID,1.91211,
2003-10-06, 02:57:00,VALID,916.225,VALID,0,VALID,100,VALID,0,VALID,18.909,VALID,128,VALID,1.46615,
2003-10-06, 02:58:00,VALID,916.215,VALID,0,VALID,100,VALID,0,VALID,18.8958,VALID,132,VALID,1.42622,
2003-10-06, 02:59:00,VALID,916.209,VALID,0,VALID,100,VALID,0,VALID,18.8862,VALID,130,VALID,1.79446,
2003-10-06, 03:00:00,VALID,916.196,VALID,0,VALID,100,VALID,0,VALID,18.8636,VALID,114,VALID,1.50893,
2003-10-06, 03:01:00,VALID,916.193,VALID,0,VALID,100,VALID,0,VALID,18.8412,VALID,115,VALID,1.8125,
2003-10-06, 03:02:00,VALID,916.21,VALID,0.2,VALID,100,VALID,0,VALID,18.8156,VALID,115,VALID,1.60956,
2003-10-06, 03:03:00,VALID,916.203,VALID,0,VALID,100,VALID,-0.0169808,VALID,18.8024,VALID,95,VALID,1.00037,
2003-10-06, 03:04:00,VALID,916.213,VALID,0,VALID,100,VALID,0,VALID,18.799,VALID,113,VALID,1.04634,
2003-10-06, 03:05:00,VALID,916.213,VALID,0,VALID,100,VALID,0,VALID,18.7965,VALID,83,VALID,0.861852,
2003-10-06, 03:06:00,VALID,916.199,VALID,0,VALID,100,VALID,0,VALID,18.7962,VALID,64,VALID,0.929688,
2003-10-06, 03:07:00,VALID,916.203,VALID,0,VALID,100,VALID,0,VALID,18.7928,VALID,67,VALID,1.30723,
2003-10-06, 03:08:00,VALID,916.189,VALID,0,VALID,100,VALID,-0.0169808,VALID,18.7967,VALID,63,VALID,1.34162,
2003-10-06, 03:09:00,VALID,916.194,VALID,0,VALID,100,VALID,0,VALID,18.7863,VALID,86,VALID,1.09446,
2003-10-06, 03:10:00,VALID,916.177,VALID,0,VALID,100,VALID,-0.0339617,VALID,18.7798,VALID,103,VALID,0.971912,
2003-10-06, 03:11:00,VALID,916.162,VALID,0,VALID,100,VALID,-0.0169808,VALID,18.7704,VALID,113,VALID,1.12461,
2003-10-06, 03:12:00,VALID,916.124,VALID,0,VALID,100,VALID,-0.0169808,VALID,18.7768,VALID,122,VALID,1.76699,
2003-10-06, 03:13:00,VALID,916.099,VALID,0,VALID,100,VALID,0.0169808,VALID,18.7669,VALID,125,VALID,2.14922,
2003-10-06, 03:14:00,VALID,916.061,VALID,0,VALID,100,VALID,0.0169808,VALID,18.7702,VALID,120,VALID,2.49352,
2003-10-06, 03:15:00,VALID,916.033,VALID,0.2,VALID,100,VALID,0,VALID,18.7667,VALID,124,VALID,2.06868,
2003-10-06, 03:16:00,VALID,916.016,VALID,0,VALID,100,VALID,0,VALID,18.7739,VALID,125,VALID,1.95293,
2003-10-06, 03:17:00,VALID,915.979,VALID,0,VALID,100,VALID,-0.0169808,VALID,18.7736,VALID,128,VALID,2.11506,
2003-10-06, 03:18:00,VALID,915.937,VALID,0,VALID,100,VALID,0,VALID,18.7702,VALID,118,VALID,2.12277,
2003-10-06, 03:19:00,VALID,915.903,VALID,0,VALID,100,VALID,-0.0169808,VALID,18.7736,VALID,127,VALID,2.34266,
2003-10-06, 03:20:00,VALID,915.879,VALID,0,VALID,100,VALID,-0.0339617,VALID,18.7699,VALID,127,VALID,1.99043,
2003-10-06, 03:21:00,VALID,915.862,VALID,0,VALID,100,VALID,-0.0169808,VALID,18.7736,VALID,109,VALID,2.02344,
2003-10-06, 03:22:00,VALID,915.856,VALID,0,VALID,100,VALID,-0.0509425,VALID,18.7768,VALID,114,VALID,1.89347,
2003-10-06, 03:23:00,VALID,915.854,VALID,0,VALID,100,VALID,-0.0169808,VALID,18.7801,VALID,130,VALID,1.79334,
2003-10-06, 03:24:00,VALID,915.837,VALID,0,VALID,100,VALID,-0.0849042,VALID,18.7771,VALID,138,VALID,1.96113,
2003-10-06, 03:25:00,VALID,915.809,VALID,0,VALID,100,VALID,-0.0169808,VALID,18.7766,VALID,131,VALID,2.1282,
2003-10-06, 03:26:00,VALID,915.781,VALID,0,VALID,100,VALID,-0.0339617,VALID,18.7798,VALID,127,VALID,2.47675,
2003-10-06, 03:27:00,VALID,915.746,VALID,0,VALID,100,VALID,0,VALID,18.7868,VALID,122,VALID,2.9157,
2003-10-06, 03:28:00,VALID,915.736,VALID,0,VALID,100,VALID,-0.0339617,VALID,18.7932,VALID,122,VALID,2.78468,
2003-10-06, 03:29:00,VALID,915.705,VALID,0,VALID,100,VALID,-0.0169808,VALID,18.7893,VALID,127,VALID,2.58929,
2003-10-06, 03:30:00,VALID,915.701,VALID,0,VALID,100,VALID,0,VALID,18.7992,VALID,124,VALID,2.48528,
2003-10-06, 03:31:00,VALID,915.694,VALID,0,VALID,100,VALID,-0.0169808,VALID,18.7928,VALID,126,VALID,2.38008,
2003-10-06, 03:32:00,VALID,915.693,VALID,0,VALID,100,VALID,0,VALID,18.8124,VALID,131,VALID,2.16515,
2003-10-06, 03:33:00,VALID,915.673,VALID,0,VALID,100,VALID,0.0169808,VALID,18.8059,VALID,137,VALID,2.74777,
2003-10-06, 03:34:01,VALID,915.673,VALID,0,VALID,100,VALID,0,VALID,18.8024,VALID,131,VALID,2.35494,
2003-10-06, 03:35:00,VALID,915.684,VALID,0,VALID,100,VALID,-0.0169808,VALID,18.8151,VALID,134,VALID,2.27772,
2003-10-06, 03:36:00,VALID,915.674,VALID,0,VALID,100,VALID,-0.0169808,VALID,18.8221,VALID,126,VALID,2.19727,
2003-10-06, 03:37:01,VALID,915.679,VALID,0,VALID,100,VALID,0,VALID,18.8121,VALID,120,VALID,2.75572,
2003-10-06, 03:38:00,VALID,915.664,VALID,0,VALID,100,VALID,-0.0509425,VALID,18.8287,VALID,113,VALID,2.60814,
2003-10-06, 03:39:00,VALID,915.651,VALID,0,VALID,100,VALID,-0.0169808,VALID,18.8248,VALID,120,VALID,2.05966,
2003-10-06, 03:40:00,VALID,915.614,VALID,0,VALID,100,VALID,-0.0169808,VALID,18.8315,VALID,118,VALID,2.63717,
2003-10-06, 03:41:01,VALID,915.596,VALID,0,VALID,100,VALID,-0.0339617,VALID,18.8414,VALID,106,VALID,2.61537,
2003-10-06, 03:42:00,VALID,915.571,VALID,0,VALID,100,VALID,-0.0169808,VALID,18.8447,VALID,115,VALID,2.96987,
2003-10-06, 03:43:00,VALID,915.537,VALID,0,VALID,100,VALID,0,VALID,18.8543,VALID,95,VALID,1.4282,
2003-10-06, 03:44:00,VALID,915.511,VALID,0.2,VALID,100,VALID,0,VALID,18.8474,VALID,109,VALID,2.25213,
2003-10-06, 03:45:00,VALID,915.491,VALID,0,VALID,100,VALID,-0.0339617,VALID,18.8576,VALID,124,VALID,2.33874,